TimeEST,TemperatureF,Dew PointF,Humidity,Sea Level PressureIn,VisibilityMPH,Wind Direction,Wind SpeedMPH,Gust SpeedMPH,PrecipitationIn,Events,Conditions,WindDirDegrees,DateUTC
12:53 AM,19.0,9.0,65,29.51,10.0,West,11.5,18.4,N/A,,Clear,270,2013-11-24 05:53:00
1:53 AM,18.0,7.0,62,29.52,10.0,West,11.5,20.7,N/A,,Clear,270,2013-11-24 06:53:00
2:53 AM,17.1,6.1,62,29.51,10.0,West,11.5,-,N/A,,Clear,270,2013-11-24 07:53:00
3:53 AM,18.0,6.1,60,29.49,10.0,West,12.7,19.6,N/A,,Clear,260,2013-11-24 08:53:00
4:53 AM,18.0,7.0,62,29.47,10.0,West,13.8,19.6,N/A,,Overcast,270,2013-11-24 09:53:00
5:53 AM,18.0,8.1,65,29.46,10.0,West,11.5,-,N/A,,Mostly Cloudy,280,2013-11-24 10:53:00
6:53 AM,19.0,7.0,59,29.45,10.0,West,12.7,23.0,N/A,,Overcast,280,2013-11-24 11:53:00
7:53 AM,18.0,10.9,74,29.46,2.5,WNW,10.4,-,0.00,Snow,Light Snow,290,2013-11-24 12:53:00
8:00 AM,18.0,10.9,74,29.43,1.8,WNW,10.4,18.4,0.00,Snow,Light Snow,300,2013-11-24 13:00:00
8:17 AM,18.0,12.0,78,29.43,0.8,NW,11.5,-,0.00,Snow,Light Snow,310,2013-11-24 13:17:00
8:35 AM,18.0,14.0,84,29.44,1.0,WNW,8.1,-,0.00,Snow,Light Snow,300,2013-11-24 13:35:00
8:43 AM,18.0,12.0,78,29.44,0.8,WNW,11.5,29.9,0.00,Snow,Light Snow,300,2013-11-24 13:43:00
8:53 AM,18.0,12.9,81,29.47,0.5,WNW,11.5,26.5,0.00,Snow,Snow,300,2013-11-24 13:53:00
9:00 AM,18.0,14.0,84,29.44,0.5,WNW,10.4,18.4,0.00,Fog-Snow,Snow,290,2013-11-24 14:00:00
9:05 AM,18.0,12.9,81,29.44,1.5,Variable,6.9,18.4,0.00,Snow,Light Snow,0,2013-11-24 14:05:00
9:07 AM,19.0,12.0,74,29.44,3.0,WNW,10.4,18.4,0.00,Snow,Light Snow,290,2013-11-24 14:07:00
9:26 AM,19.0,8.1,62,29.44,7.0,WNW,16.1,27.6,0.00,,Mostly Cloudy,300,2013-11-24 14:26:00
9:53 AM,19.0,8.1,62,29.47,10.0,WNW,16.1,27.6,0.00,,Overcast,300,2013-11-24 14:53:00
10:04 AM,18.0,10.9,74,29.44,1.8,WNW,15.0,28.8,0.00,Snow,Light Snow,290,2013-11-24 15:04:00
10:14 AM,19.0,10.9,71,29.44,3.0,WNW,12.7,25.3,0.00,Snow,Light Snow,290,2013-11-24 15:14:00
10:40 AM,19.0,10.9,71,29.44,1.8,WNW,15.0,20.7,0.00,Snow,Light Snow,300,2013-11-24 15:40:00
10:50 AM,19.4,10.4,68,29.44,1.8,West,16.1,27.6,0.00,Snow,Light Snow,280,2013-11-24 15:50:00
10:53 AM,19.0,10.9,71,29.47,2.0,West,13.8,27.6,0.00,Snow,Light Snow,270,2013-11-24 15:53:00
11:12 AM,19.0,9.0,65,29.44,5.0,WNW,17.3,33.4,0.00,Snow,Light Snow,290,2013-11-24 16:12:00
11:53 AM,19.0,9.0,65,29.47,5.0,West,16.1,23.0,0.00,,Haze,280,2013-11-24 16:53:00
12:53 PM,19.0,10.0,68,29.48,3.0,WNW,16.1,26.5,0.00,Snow,Light Snow,300,2013-11-24 17:53:00
1:18 PM,19.0,10.9,71,29.45,1.8,WNW,16.1,33.4,0.00,Snow,Light Snow,290,2013-11-24 18:18:00
1:28 PM,18.0,12.0,78,29.45,1.2,West,18.4,26.5,0.00,Snow,Light Snow,280,2013-11-24 18:28:00
1:53 PM,18.0,12.0,78,29.49,1.8,West,16.1,23.0,0.00,Snow,Light Snow,280,2013-11-24 18:53:00
2:01 PM,18.0,12.0,78,29.47,1.0,WNW,13.8,24.2,0.00,Snow,Light Snow,290,2013-11-24 19:01:00
2:14 PM,18.0,12.0,78,29.48,1.8,West,10.4,20.7,0.00,Snow,Light Snow,280,2013-11-24 19:14:00
2:31 PM,18.0,12.0,78,29.48,1.0,West,13.8,20.7,0.00,Snow,Light Snow,280,2013-11-24 19:31:00
2:53 PM,18.0,12.0,78,29.53,1.0,WNW,13.8,26.5,0.00,Snow,Light Snow,290,2013-11-24 19:53:00
3:13 PM,18.0,10.9,74,29.51,2.0,WNW,13.8,28.8,0.00,Snow,Light Snow,300,2013-11-24 20:13:00
3:22 PM,18.0,10.0,71,29.51,3.0,WNW,18.4,26.5,0.00,Snow,Light Snow,300,2013-11-24 20:22:00
3:48 PM,17.6,10.4,73,29.52,2.0,West,15.0,23.0,0.00,Snow,Light Snow,280,2013-11-24 20:48:00
3:53 PM,17.1,10.0,74,29.55,2.0,WNW,16.1,25.3,0.00,Snow,Light Snow,290,2013-11-24 20:53:00
4:10 PM,17.1,9.0,71,29.53,4.0,West,11.5,24.2,0.00,,Haze,280,2013-11-24 21:10:00
4:53 PM,18.0,5.0,57,29.57,10.0,WNW,12.7,27.6,0.00,,Overcast,300,2013-11-24 21:53:00
5:53 PM,18.0,6.1,60,29.59,10.0,WNW,10.4,19.6,N/A,,Overcast,300,2013-11-24 22:53:00
6:53 PM,18.0,6.1,60,29.61,10.0,WNW,18.4,34.5,N/A,,Mostly Cloudy,300,2013-11-24 23:53:00
7:53 PM,18.0,5.0,57,29.62,10.0,WNW,21.9,34.5,N/A,,Clear,290,2013-11-25 00:53:00
8:53 PM,18.0,6.1,60,29.63,10.0,West,17.3,31.1,N/A,,Scattered Clouds,280,2013-11-25 01:53:00
9:53 PM,17.1,6.1,62,29.65,10.0,West,17.3,28.8,N/A,,Overcast,280,2013-11-25 02:53:00
10:53 PM,17.1,6.1,62,29.68,10.0,West,15.0,26.5,N/A,,Mostly Cloudy,280,2013-11-25 03:53:00
11:53 PM,16.0,6.1,65,29.70,10.0,West,13.8,28.8,N/A,,Overcast,280,2013-11-25 04:53:00